Hourly Weather Samaxi

Today, 15 July, Wednesday

Time Temperature Precipitation Wind Pressure Humidity
00:00 +24°C° 0.3 mm 1 mps 702 mmHg 75%
01:00 +23°C° 0.1 mm 1 mps 702 mmHg 75%
02:00 +23°C° 0.1 mm 1 mps 702 mmHg 76%
03:00 +23°C° 0 mm 1 mps 702 mmHg 78%
04:00 +23°C° 0.1 mm 2 mps 703 mmHg 75%
05:00 +24°C° 0.1 mm 2 mps 703 mmHg 72%
06:00 +24°C° 0.1 mm 2 mps 703 mmHg 70%
07:00 +25°C° 0.1 mm 2 mps 704 mmHg 64%
08:00 +27°C° 0.1 mm 2 mps 704 mmHg 58%
09:00 +28°C° 0.1 mm 2 mps 704 mmHg 52%
10:00 +29°C° 0.8 mm 2 mps 704 mmHg 49%
11:00 +30°C° 0.8 mm 2 mps 704 mmHg 46%
12:00 +31°C° 0.8 mm 2 mps 704 mmHg 43%
13:00 +30°C° 0.7 mm 3 mps 704 mmHg 44%
14:00 +30°C° 0.7 mm 4 mps 704 mmHg 45%
15:00 +30°C° 0.7 mm 5 mps 703 mmHg 46%
16:00 +30°C° 0.2 mm 4 mps 703 mmHg 47%
17:00 +30°C° 0.2 mm 4 mps 703 mmHg 47%
18:00 +29°C° 0.2 mm 4 mps 703 mmHg 47%
19:00 +28°C° 0 mm 3 mps 703 mmHg 51%
20:00 +27°C° 0 mm 3 mps 703 mmHg 55%
21:00 +25°C° 0 mm 3 mps 703 mmHg 59%
22:00 +25°C° 0 mm 3 mps 703 mmHg 60%
23:00 +25°C° 0 mm 2 mps 702 mmHg 60%

Tomorrow, 16 July, Thursday

Time Temperature Precipitation Wind Pressure Humidity
00:00 +24°C° 0 mm 2 mps 702 mmHg 61%
01:00 +24°C° 0 mm 2 mps 702 mmHg 60%
02:00 +24°C° 0 mm 2 mps 702 mmHg 60%
03:00 +24°C° 0 mm 2 mps 702 mmHg 59%
04:00 +24°C° 0 mm 2 mps 702 mmHg 57%
05:00 +25°C° 0 mm 2 mps 702 mmHg 54%
06:00 +25°C° 0 mm 2 mps 702 mmHg 52%
07:00 +27°C° 0 mm 2 mps 702 mmHg 48%
08:00 +28°C° 0 mm 2 mps 702 mmHg 44%
09:00 +30°C° 0 mm 2 mps 703 mmHg 40%
10:00 +31°C° 0.1 mm 2 mps 703 mmHg 38%
11:00 +32°C° 0.1 mm 2 mps 702 mmHg 36%
12:00 +34°C° 0.1 mm 2 mps 702 mmHg 34%
13:00 +32°C° 0.4 mm 2 mps 702 mmHg 37%
14:00 +31°C° 0.4 mm 3 mps 702 mmHg 40%
15:00 +31°C° 0.4 mm 3 mps 701 mmHg 43%
16:00 +31°C° 0.3 mm 3 mps 701 mmHg 43%
17:00 +30°C° 0.3 mm 3 mps 701 mmHg 44%
18:00 +30°C° 0.3 mm 2 mps 701 mmHg 45%
19:00 +29°C° 0 mm 2 mps 701 mmHg 48%
20:00 +27°C° 0 mm 2 mps 701 mmHg 51%
21:00 +26°C° 0 mm 2 mps 701 mmHg 54%
22:00 +26°C° 0 mm 2 mps 701 mmHg 53%
23:00 +25°C° 0 mm 2 mps 701 mmHg 53%

Day after tomorrow, 17 July, Friday

Time Temperature Precipitation Wind Pressure Humidity
00:00 +25°C° 0 mm 1 mps 700 mmHg 52%
01:00 +25°C° 0 mm 2 mps 700 mmHg 51%
02:00 +24°C° 0 mm 2 mps 700 mmHg 49%
03:00 +24°C° 0 mm 2 mps 700 mmHg 48%
04:00 +25°C° 0 mm 2 mps 700 mmHg 47%
05:00 +25°C° 0 mm 1 mps 700 mmHg 45%
06:00 +26°C° 0 mm 1 mps 700 mmHg 44%
07:00 +27°C° 0 mm 1 mps 701 mmHg 41%
08:00 +29°C° 0 mm 2 mps 701 mmHg 38%
09:00 +30°C° 0 mm 2 mps 701 mmHg 35%
10:00 +31°C° 0 mm 2 mps 701 mmHg 33%
11:00 +32°C° 0 mm 2 mps 701 mmHg 31%
12:00 +35°C° 0 mm 2 mps 701 mmHg 29%
13:00 +35°C° 0 mm 2 mps 701 mmHg 28%
14:00 +36°C° 0 mm 3 mps 700 mmHg 27%
15:00 +36°C° 0 mm 3 mps 700 mmHg 26%
16:00 +35°C° 0 mm 3 mps 700 mmHg 28%
17:00 +35°C° 0 mm 3 mps 699 mmHg 31%
18:00 +34°C° 0 mm 4 mps 699 mmHg 34%
19:00 +31°C° 0 mm 3 mps 699 mmHg 40%
20:00 +29°C° 0 mm 2 mps 699 mmHg 45%
21:00 +28°C° 0 mm 1 mps 700 mmHg 51%
22:00 +27°C° 0 mm 1 mps 699 mmHg 51%
23:00 +27°C° 0 mm 1 mps 699 mmHg 52%

18 July, Saturday

Time Temperature Precipitation Wind Pressure Humidity
00:00 +26°C° 0 mm 1 mps 699 mmHg 52%
01:00 +26°C° 0 mm 1 mps 699 mmHg 52%
02:00 +26°C° 0 mm 1 mps 699 mmHg 51%
03:00 +26°C° 0 mm 1 mps 699 mmHg 51%
04:00 +26°C° 0 mm 1 mps 700 mmHg 50%
05:00 +27°C° 0 mm 1 mps 700 mmHg 49%
06:00 +27°C° 0 mm 1 mps 700 mmHg 48%
07:00 +28°C° 0 mm 1 mps 701 mmHg 45%
08:00 +30°C° 0 mm 2 mps 701 mmHg 43%
09:00 +31°C° 0 mm 2 mps 701 mmHg 40%
10:00 +32°C° 0 mm 2 mps 701 mmHg 38%
11:00 +34°C° 0 mm 2 mps 702 mmHg 36%
12:00 +35°C° 0 mm 3 mps 702 mmHg 34%
13:00 +35°C° 0 mm 3 mps 702 mmHg 33%
14:00 +36°C° 0 mm 3 mps 702 mmHg 32%
15:00 +36°C° 0 mm 4 mps 702 mmHg 31%
16:00 +35°C° 0 mm 4 mps 702 mmHg 35%
17:00 +34°C° 0 mm 4 mps 702 mmHg 39%
18:00 +33°C° 0 mm 4 mps 702 mmHg 43%
19:00 +32°C° 0 mm 4 mps 702 mmHg 49%
20:00 +29°C° 0 mm 3 mps 703 mmHg 54%
21:00 +27°C° 0 mm 3 mps 703 mmHg 60%
22:00 +27°C° 0 mm 3 mps 703 mmHg 61%
23:00 +26°C° 0 mm 3 mps 703 mmHg 62%

19 July, Sunday

Time Temperature Precipitation Wind Pressure Humidity
00:00 +26°C° 0 mm 2 mps 703 mmHg 63%
01:00 +25°C° 0 mm 2 mps 703 mmHg 64%
02:00 +25°C° 0 mm 2 mps 703 mmHg 65%
03:00 +24°C° 0 mm 2 mps 703 mmHg 67%
04:00 +25°C° 0 mm 2 mps 703 mmHg 67%
05:00 +25°C° 0 mm 2 mps 703 mmHg 68%
06:00 +25°C° 0 mm 1 mps 704 mmHg 68%
07:00 +26°C° 0 mm 1 mps 704 mmHg 63%
08:00 +27°C° 0 mm 2 mps 704 mmHg 59%
09:00 +29°C° 0 mm 2 mps 704 mmHg 54%
10:00 +30°C° 0 mm 2 mps 704 mmHg 50%
11:00 +31°C° 0 mm 3 mps 704 mmHg 47%
12:00 +33°C° 0 mm 3 mps 705 mmHg 43%
13:00 +34°C° 0 mm 4 mps 704 mmHg 42%
14:00 +34°C° 0 mm 4 mps 704 mmHg 41%
15:00 +35°C° 0 mm 4 mps 704 mmHg 40%
16:00 +33°C° 0 mm 4 mps 704 mmHg 44%
17:00 +32°C° 0 mm 4 mps 703 mmHg 48%
18:00 +29°C° 0 mm 4 mps 703 mmHg 52%
19:00 +28°C° 0 mm 3 mps 703 mmHg 56%
20:00 +27°C° 0 mm 2 mps 703 mmHg 60%
21:00 +26°C° 0 mm 1 mps 703 mmHg 64%
22:00 +25°C° 0 mm 1 mps 703 mmHg 66%
23:00 +25°C° 0 mm 1 mps 703 mmHg 68%

20 July, Monday

Time Temperature Precipitation Wind Pressure Humidity
00:00 +24°C° 0 mm 1 mps 702 mmHg 70%
01:00 +24°C° 0 mm 1 mps 702 mmHg 70%
02:00 +24°C° 0 mm 1 mps 702 mmHg 71%
03:00 +23°C° 0 mm 1 mps 702 mmHg 72%
04:00 +24°C° 0 mm 1 mps 702 mmHg 72%
05:00 +24°C° 0 mm 1 mps 702 mmHg 71%
06:00 +24°C° 0 mm 1 mps 702 mmHg 71%
07:00 +25°C° 0 mm 1 mps 702 mmHg 67%
08:00 +26°C° 0 mm 2 mps 702 mmHg 63%
09:00 +27°C° 0 mm 2 mps 702 mmHg 59%
10:00 +29°C° 0 mm 3 mps 702 mmHg 55%
11:00 +30°C° 0 mm 3 mps 702 mmHg 51%
12:00 +31°C° 0 mm 3 mps 702 mmHg 48%
13:00 +33°C° 0 mm 3 mps 701 mmHg 46%
14:00 +33°C° 0 mm 3 mps 701 mmHg 43%
15:00 +34°C° 0 mm 3 mps 701 mmHg 41%
16:00 +33°C° 0 mm 3 mps 701 mmHg 44%
17:00 +32°C° 0 mm 4 mps 700 mmHg 47%
18:00 +30°C° 0 mm 5 mps 700 mmHg 50%
19:00 +29°C° 0 mm 3 mps 700 mmHg 56%
20:00 +27°C° 0 mm 2 mps 700 mmHg 62%
21:00 +26°C° 0 mm 1 mps 700 mmHg 68%
22:00 +25°C° 0 mm 1 mps 700 mmHg 69%
23:00 +23°C° 0 mm 0 mps 700 mmHg 71%
Show more